Weather History for Orange, MA

Change the Weather History Date:

Wednesday, May 23, 2012

  Actual Average Record
Temperature  
Mean Temperature 68 °F -  
Max Temperature 77 °F 66 °F 80 °F (2004)
Min Temperature 59 °F 43 °F 33 °F (2002)
Cooling Degree Days 3    
Growing Degree Days 18 (Base 50)    
Moisture  
Dew Point 61 °F    
Average Humidity 85    
Maximum Humidity 100    
Minimum Humidity 60    
Precipitation  
Precipitation 0.02 in - - ()
Sea Level Pressure  
Sea Level Pressure 29.93 in    
Wind  
Wind Speed 1 mph (SW)    
Max Wind Speed 10 mph    
Max Gust Speed 16 mph    
Visibility 9 miles    
Events      
Averages and records for this station are not official NWS values.
T = Trace of Precipitation, MM = Missing Value Source: NWS Daily Summary

Daily Weather History Graph

Daily Weather History Graph

Search for Another Location

Airport:

Trip Planner

Search our weather history database for the weather conditions in past years. The results will help you decide how hot, cold, wet, or windy it might be!

Date:

Astronomy

May. 23, 2012 Rise Set
Actual Time 5:19 AM EDT 8:12 PM EDT
Civil Twilight 4:46 AM EDT 8:46 PM EDT
Nautical Twilight 4:04 AM EDT 9:28 PM EDT
Astronomical Twilight 3:15 AM EDT 10:17 PM EDT
Moon 7:19 AM EDT 10:32 PM EDT
Length of Visible Light 15h 59m
Length of Day
14h 53m
Waxing Crescent, 6% of the Moon is Illuminated
May 23
Waxing Crescent
May 28
First Quarter
Jun 4
Full
Jun 11
Last Quarter
Jun 19
New

Hourly Weather History & Observations

Time (EDT) Temp. Dew Point Humidity Pressure Visibility Wind Dir Wind Speed Gust Speed Precip Events Conditions
12:52 AM 62.1 °F 60.1 °F 93% 29.88 in 10.0 mi Calm Calm - N/A   Overcast
1:05 AM 62.6 °F 60.8 °F 94% 29.88 in 10.0 mi Calm Calm - N/A   Overcast
1:52 AM 61.0 °F 60.1 °F 97% 29.86 in 10.0 mi Calm Calm - N/A   Overcast
2:04 AM 60.8 °F 59.0 °F 94% 29.87 in 10.0 mi Calm Calm - N/A   Overcast
2:34 AM 60.8 °F 59.0 °F 94% 29.86 in 10.0 mi Calm Calm - N/A   Overcast
2:52 AM 59.0 °F 57.9 °F 96% 29.86 in 10.0 mi Calm Calm - N/A   Overcast
3:40 AM 59.0 °F 57.2 °F 94% 29.86 in 2.5 mi Calm Calm - N/A   Overcast
3:42 AM 59.0 °F 57.2 °F 94% 29.86 in 3.0 mi Calm Calm - N/A   Overcast
3:52 AM 59.0 °F 59.0 °F 100% 29.87 in 10.0 mi Calm Calm - N/A   Overcast
4:52 AM 60.1 °F 59.0 °F 96% 29.87 in 10.0 mi Calm Calm - N/A   Overcast
5:52 AM 60.1 °F 59.0 °F 96% 29.88 in 10.0 mi Calm Calm - N/A   Overcast
6:52 AM 62.1 °F 60.1 °F 93% 29.90 in 10.0 mi Calm Calm - N/A   Overcast
7:34 AM 62.6 °F 60.8 °F 94% 29.91 in 10.0 mi Calm Calm - N/A   Scattered Clouds
7:52 AM 64.9 °F 60.1 °F 84% 29.91 in 10.0 mi Calm Calm - N/A   Mostly Cloudy
8:18 AM 66.2 °F 60.8 °F 83% 29.91 in 10.0 mi Calm Calm - N/A   Overcast
8:48 AM 66.2 °F 60.8 °F 83% 29.92 in 10.0 mi Calm Calm - N/A   Overcast
8:52 AM 66.9 °F 60.1 °F 79% 29.92 in 10.0 mi Calm Calm - N/A   Overcast
9:04 AM 68.0 °F 60.8 °F 78% 29.92 in 10.0 mi Calm Calm - N/A   Overcast
9:52 AM 70.0 °F 61.0 °F 73% 29.92 in 10.0 mi NW 3.5 mph - N/A   Overcast
10:18 AM 71.6 °F 60.8 °F 69% 29.93 in 10.0 mi WNW 6.9 mph - N/A   Overcast
11:52 AM 75.0 °F 60.1 °F 60% 29.93 in 10.0 mi Variable 4.6 mph - N/A   Mostly Cloudy
12:52 PM 75.9 °F 61.0 °F 60% 29.94 in 10.0 mi Calm Calm - N/A   Mostly Cloudy
1:52 PM 73.9 °F 63.0 °F 68% 29.94 in 10.0 mi SSW 4.6 mph - 0.01 in   Overcast
2:52 PM 72.0 °F 66.0 °F 81% 29.94 in 10.0 mi South 6.9 mph - 0.01 in   Mostly Cloudy
3:52 PM 77.0 °F 64.0 °F 64% 29.94 in 10.0 mi South 9.2 mph - N/A   Partly Cloudy
4:52 PM 73.0 °F 62.1 °F 68% 29.95 in 10.0 mi ENE 10.4 mph 16.1 mph N/A   Mostly Cloudy
5:52 PM 73.0 °F 63.0 °F 71% 29.96 in 10.0 mi SSW 6.9 mph - N/A   Mostly Cloudy
6:52 PM 73.0 °F 63.0 °F 71% 29.96 in 10.0 mi South 8.1 mph - N/A   Clear
7:52 PM 70.0 °F 64.0 °F 81% 29.98 in 10.0 mi Calm Calm - N/A   Clear
8:52 PM 64.9 °F 63.0 °F 93% 30.00 in 10.0 mi NNW 3.5 mph - N/A   Clear
9:52 PM 63.0 °F 62.1 °F 97% 30.02 in 10.0 mi Calm Calm - N/A   Scattered Clouds
10:52 PM 62.1 °F 61.0 °F 96% 30.04 in 2.5 mi Calm Calm - N/A   Clear
11:04 PM 60.8 °F 60.8 °F 100% 30.04 in 10.0 mi Calm Calm - N/A   Clear
11:52 PM 61.0 °F 60.1 °F 97% 30.06 in 10.0 mi Calm Calm - N/A   Partly Cloudy